Wind_Speed
11 11 11 11 11 11 11 10 10 10 9 9 9 9 8 9 9 9 8 9 10 11 12 12 12 12 12 12 12 12 12 12 12 12 12 12 12 12 12 11 11 11 12 12
11 11 11 11 11 11 11 11 10 10 9 9 9 9 8 9 9 9 9 9 10 11 12 12 12 11 11 12 13 13 13 13 13 13 13 13 12 12 12 12 12 11 12 12
11 11 11 11 12 12 12 11 11 10 10 10 9 8 8 8 9 9 9 9 10 10 10 11 11 11 12 13 14 14 13 12 13 13 13 13 12 12 12 12 12 12 12 12
11 11 11 11 12 12 12 11 11 12 11 10 10 9 8 9 9 9 9 10 10 10 11 11 11 12 12 13 13 14 13 13 13 13 13 13 12 12 12 12 12 12 12 12
11 11 11 11 11 12 12 11 11 12 12 11 11 11 9 9 9 9 9 10 10 10 11 11 11 12 12 13 13 14 14 14 13 13 13 13 13 13 13 12 12 12 12 12
11 11 11 11 11 12 11 11 12 12 13 13 11 11 9 9 9 9 10 11 11 11 12 12 12 12 13 14 13 13 14 13 13 13 13 13 13 13 13 13 13 13 13 13
12 12 12 11 12 12 11 12 13 13 14 13 12 13 11 10 10 10 10 11 11 12 12 13 13 14 14 14 14 14 13 13 13 14 13 13 13 13 13 14 14 14 14 14
13 12 12 12 12 12 12 13 13 14 14 14 14 15 13 12 11 10 11 12 12 12 13 13 15 15 14 14 14 14 14 14 14 14 14 14 14 13 13 14 14 15 15 15
13 12 12 13 12 12 13 13 14 14 15 16 15 14 13 12 12 12 13 13 13 13 13 14 15 15 15 15 15 15 15 15 15 15 14 14 14 14 14 14 15 15 15 15
14 13 13 13 13 13 14 14 15 15 16 17 16 15 14 14 14 13 13 14 14 15 15 15 15 15 15 16 15 15 15 14 14 14 14 14 14 14 15 16 16 15 15 15
15 15 14 14 15 14 15 15 16 16 17 18 18 15 15 14 14 14 15 14 14 15 15 15 15 15 16 16 16 16 15 14 14 14 14 14 15 15 15 16 16 16 15 15
17 17 16 16 16 15 16 16 17 18 18 18 18 16 16 16 15 15 15 15 15 15 16 16 15 15 15 16 16 16 15 14 15 15 15 15 15 15 15 15 16 16 16 16
17 18 17 17 17 17 17 17 18 19 19 18 18 17 16 17 16 16 16 16 16 16 16 16 16 15 15 15 16 16 15 15 15 15 16 16 16 16 16 16 16 16 17 17
18 18 18 18 18 18 18 18 19 20 21 20 19 19 18 18 18 18 19 18 17 16 16 16 16 16 16 16 16 16 16 16 16 16 16 16 16 17 17 17 17 17 17 17
20 20 20 20 19 19 18 18 20 21 21 20 19 20 19 18 18 19 19 19 18 17 16 16 17 17 16 17 17 17 17 16 17 17 17 17 17 18 18 18 18 18 17 18
21 21 21 21 21 20 20 19 19 20 21 21 20 20 20 19 19 20 21 20 19 19 18 17 17 17 17 17 18 18 18 18 18 18 18 18 18 18 18 18 18 18 18 18
21 22 23 22 22 21 20 21 21 21 22 22 22 21 20 20 21 21 21 20 19 19 19 19 19 18 18 19 18 19 19 19 19 20 19 19 19 19 19 19 19 19 19 19
23 23 24 24 24 24 21 22 23 23 22 23 23 23 23 23 22 22 22 21 20 20 20 21 21 21 20 20 20 20 20 21 20 20 20 20 20 20 20 20 20 20 20 19
24 24 24 25 25 24 23 23 23 23 23 23 23 23 23 24 23 23 22 22 22 22 23 23 22 22 22 22 22 22 21 21 21 21 21 20 20 21 20 20 20 20 20 19
25 25 26 26 26 26 24 24 24 25 24 23 23 24 24 24 24 23 23 23 23 23 23 23 23 23 23 23 23 23 23 22 22 22 22 21 21 21 21 21 21 20 20 20
25 26 26 27 27 26 25 24 24 25 24 23 23 24 24 24 24 23 23 24 24 24 24 24 24 24 24 24 24 24 23 23 22 23 23 22 22 22 22 22 22 21 21 21
24 25 26 27 27 26 25 26 25 26 25 25 24 24 24 24 25 25 25 25 26 25 25 26 25 25 25 25 24 24 24 24 23 23 23 23 23 22 22 22 22 22 21 21
24 25 25 26 26 25 25 26 26 26 27 26 26 25 25 25 26 26 26 26 26 26 26 26 26 26 26 25 25 25 24 24 24 24 23 23 23 22 22 22 22 22 22 21
26 26 26 26 25 25 26 26 27 27 28 28 28 27 27 27 28 28 28 28 28 27 27 26 27 26 26 26 26 25 25 24 24 24 23 23 23 23 22 22 22 22 22 22
26 26 27 26 25 25 25 26 27 28 29 28 28 29 29 28 28 28 28 28 28 28 28 28 28 27 27 26 26 26 26 26 25 25 24 24 24 24 23 23 23 23 24 23
26 27 27 26 26 27 26 26 27 27 29 29 28 28 29 28 27 27 28 28 29 29 29 29 29 29 29 28 28 28 28 27 26 26 25 25 25 25 24 24 24 24 25 25
Wind_Direction
265 262 259 259 259 260 260 261 264 265 269 276 283 290 285 284 283 282 282 289 296 302 304 306 307 305 302 305 306 304 302 299 297 295 295 294 290 286 284 278 277 277 275 273
260 261 262 261 261 261 262 261 264 264 269 274 279 283 284 283 287 289 291 293 298 303 307 309 308 304 303 304 304 303 300 297 295 294 293 293 291 288 285 281 280 279 277 275
260 263 262 261 260 258 260 261 263 264 265 271 275 278 280 284 286 287 291 297 302 305 309 312 308 304 304 306 307 305 302 297 294 294 292 291 288 285 284 282 281 280 279 279
255 256 257 260 259 258 259 260 261 263 263 267 272 278 279 281 283 285 294 299 304 305 308 311 308 304 303 306 306 305 302 298 296 294 292 291 288 285 283 282 280 279 279 280
253 253 256 260 260 259 259 258 260 263 267 269 273 277 277 276 285 290 298 305 305 305 307 306 306 305 304 304 304 302 300 299 297 295 292 289 287 285 284 281 280 280 279 279
254 252 255 260 260 260 259 258 262 263 267 267 270 273 274 280 286 289 298 305 306 304 304 303 304 306 305 303 303 300 298 299 297 295 292 288 285 284 281 278 278 279 278 276
253 254 256 257 258 258 256 254 257 259 262 266 267 269 277 284 287 292 299 301 302 303 301 303 305 306 305 303 301 300 298 298 296 293 289 287 285 284 282 278 277 279 279 277
253 251 252 253 254 257 254 254 256 260 264 268 269 271 275 279 286 294 297 297 298 300 301 303 305 304 302 301 300 300 300 297 294 290 287 285 286 285 283 282 279 278 279 278
255 252 249 250 249 251 252 253 257 260 264 269 271 274 273 276 281 290 293 294 295 297 300 301 303 304 302 300 301 301 298 295 293 291 288 285 284 284 285 284 283 281 279 277
254 252 249 249 248 249 252 255 256 259 264 267 270 271 275 275 280 284 288 289 291 294 298 300 300 300 298 297 298 299 298 298 295 291 289 287 285 285 287 287 285 284 281 278
255 254 250 250 249 248 248 251 255 259 262 266 270 269 273 274 276 278 282 284 288 292 297 298 300 299 297 298 298 298 300 297 296 293 291 289 289 287 288 287 284 284 283 279
255 254 252 251 253 251 250 254 257 261 263 265 270 269 270 272 277 279 282 285 287 292 295 296 296 297 296 296 298 298 297 296 294 293 293 292 290 290 290 288 285 283 282 280
255 253 254 254 253 253 253 253 257 259 262 264 269 273 272 276 279 283 286 287 287 289 292 293 295 296 296 295 296 296 295 294 293 295 293 290 289 290 292 291 287 285 283 282
257 254 255 256 257 257 256 256 259 260 263 266 269 274 275 277 280 282 285 286 288 288 291 293 295 296 296 296 295 294 293 293 294 294 293 290 287 289 290 291 289 287 284 282
257 256 254 256 258 259 260 259 257 260 264 268 271 271 274 276 280 280 282 283 285 286 288 290 292 294 295 296 295 294 294 293 294 294 292 289 286 287 288 289 289 287 284 282
259 257 255 255 257 260 260 260 258 259 263 266 269 271 273 274 277 279 282 284 283 285 286 288 290 293 294 294 294 293 294 294 293 293 291 289 287 286 286 286 288 288 285 283
257 257 256 255 255 258 259 261 261 262 263 265 268 270 273 275 276 279 281 280 280 283 286 286 289 293 292 291 290 290 290 292 293 292 292 290 287 284 285 285 286 286 284 281
257 257 258 258 256 258 262 262 261 262 263 265 267 268 269 272 275 276 279 279 279 281 282 284 286 290 290 289 288 287 288 290 291 292 292 290 289 285 283 284 285 285 284 280
257 258 259 259 259 259 259 262 264 263 264 265 266 268 269 270 273 275 276 279 282 281 281 281 283 286 289 289 289 288 289 289 290 291 291 290 289 287 285 285 285 285 284 281
257 257 259 260 261 260 260 262 263 264 263 264 266 268 270 271 273 273 273 275 277 277 278 277 279 282 285 287 288 288 288 288 289 289 289 289 288 287 286 285 286 284 282 281
258 258 258 259 262 263 262 263 264 264 264 265 266 267 270 271 272 272 271 273 275 276 276 277 278 281 282 284 286 286 287 288 289 289 288 287 287 287 286 285 286 284 282 281
263 261 260 261 263 266 266 266 266 266 266 266 267 268 270 272 273 273 273 274 275 275 276 276 278 280 281 282 283 284 284 285 287 287 287 286 286 287 286 284 284 283 283 282
264 265 264 263 264 266 266 268 267 266 266 266 266 268 271 272 273 274 275 275 275 276 276 277 277 278 279 280 281 283 284 284 285 285 285 284 284 284 285 283 281 280 281 281
263 264 265 266 265 266 266 267 267 265 266 266 267 269 270 272 273 274 274 274 275 276 276 277 277 276 277 277 278 280 282 282 283 283 283 283 283 283 284 284 281 279 279 280
264 265 266 268 266 267 268 268 267 265 265 265 268 271 272 273 275 274 272 271 272 274 275 277 277 277 277 277 277 279 280 280 281 282 281 281 282 282 282 282 281 280 278 278
263 265 266 267 267 265 265 267 266 267 265 264 265 267 269 270 272 273 272 270 271 272 273 274 276 277 278 277 278 279 280 280 280 280 280 280 280 280 279 279 280 280 279 278
Height
5859 5860 5859 5859 5859 5859 5859 5859 5859 5859 5859 5858 5858 5857 5857 5856 5856 5855 5855 5855 5854 5854 5852 5851 5850 5849 5847 5846 5845 5843 5842 5841 5840 5839 5838 5836 5835 5834 5833 5833 5832 5831 5830 5829
5857 5857 5857 5856 5856 5856 5855 5856 5856 5856 5856 5855 5855 5855 5854 5853 5853 5853 5852 5852 5852 5851 5849 5848 5847 5846 5845 5844 5842 5840 5839 5838 5837 5836 5834 5833 5832 5831 5830 5829 5828 5828 5827 5826
5853 5854 5853 5852 5852 5852 5853 5853 5853 5853 5853 5852 5852 5853 5852 5851 5850 5850 5849 5849 5849 5848 5847 5845 5844 5843 5842 5840 5839 5837 5836 5834 5833 5832 5831 5829 5828 5827 5826 5825 5825 5824 5823 5822
5849 5849 5849 5849 5849 5849 5850 5850 5850 5850 5850 5849 5850 5850 5850 5848 5847 5847 5847 5846 5846 5845 5844 5842 5841 5840 5838 5837 5835 5834 5832 5831 5830 5828 5827 5826 5825 5824 5823 5822 5821 5820 5819 5818
5846 5846 5846 5846 5846 5846 5847 5847 5847 5846 5846 5846 5846 5846 5847 5845 5844 5844 5844 5843 5843 5842 5840 5839 5838 5837 5835 5834 5832 5830 5829 5828 5826 5825 5823 5822 5821 5820 5819 5818 5817 5816 5815 5815
5842 5842 5842 5842 5843 5843 5843 5844 5843 5843 5843 5843 5843 5843 5843 5842 5842 5841 5841 5840 5839 5838 5837 5836 5835 5833 5832 5830 5829 5827 5825 5824 5822 5821 5820 5818 5817 5816 5815 5815 5814 5813 5812 5811
5838 5838 5838 5839 5839 5839 5840 5840 5840 5839 5839 5840 5840 5839 5840 5839 5839 5838 5838 5837 5836 5835 5834 5832 5831 5829 5828 5826 5825 5823 5822 5820 5818 5817 5815 5814 5813 5812 5811 5811 5810 5809 5808 5807
5833 5834 5835 5835 5835 5836 5836 5837 5837 5837 5836 5836 5836 5835 5837 5836 5836 5835 5835 5834 5833 5832 5830 5829 5827 5826 5824 5823 5821 5819 5817 5816 5814 5812 5811 5810 5809 5808 5807 5806 5805 5804 5803 5803
5829 5830 5831 5831 5831 5832 5832 5832 5833 5833 5832 5832 5832 5832 5833 5832 5832 5832 5831 5830 5829 5828 5827 5825 5823 5822 5820 5819 5817 5815 5813 5811 5810 5808 5807 5806 5805 5804 5803 5802 5801 5800 5799 5798
5824 5826 5827 5827 5828 5828 5828 5828 5829 5828 5828 5827 5828 5828 5829 5828 5828 5828 5828 5827 5825 5824 5823 5821 5820 5818 5816 5815 5813 5811 5809 5807 5805 5804 5802 5801 5800 5799 5798 5797 5796 5795 5794 5794
5820 5821 5822 5823 5823 5823 5824 5824 5824 5824 5824 5824 5824 5827 5825 5824 5824 5824 5823 5822 5821 5820 5819 5817 5816 5814 5812 5810 5809 5806 5805 5803 5801 5800 5798 5797 5796 5795 5793 5792 5791 5790 5789 5789
5815 5816 5816 5818 5818 5818 5819 5819 5819 5820 5819 5819 5819 5823 5820 5819 5819 5819 5818 5817 5816 5815 5814 5813 5811 5810 5808 5806 5804 5802 5801 5799 5797 5796 5794 5793 5792 5790 5789 5787 5786 5785 5784 5784
5810 5810 5811 5813 5815 5814 5814 5814 5814 5814 5814 5814 5814 5818 5815 5814 5814 5813 5813 5812 5811 5811 5810 5808 5807 5805 5803 5801 5800 5798 5796 5795 5793 5792 5790 5788 5787 5786 5784 5783 5781 5780 5779 5778
5804 5805 5806 5808 5808 5808 5808 5809 5809 5809 5808 5809 5809 5810 5810 5809 5809 5809 5808 5807 5806 5805 5805 5803 5802 5800 5798 5797 5795 5793 5792 5790 5789 5787 5786 5784 5782 5781 5780 5778 5777 5775 5774 5773
5798 5799 5800 5801 5801 5802 5802 5803 5803 5803 5803 5804 5805 5805 5805 5804 5804 5804 5803 5802 5801 5800 5800 5798 5797 5795 5794 5792 5790 5788 5787 5785 5784 5782 5781 5779 5777 5776 5774 5773 5772 5770 5769 5768
5792 5793 5794 5795 5795 5795 5796 5797 5797 5797 5797 5798 5798 5799 5799 5799 5798 5798 5797 5797 5796 5795 5794 5793 5791 5790 5789 5787 5785 5783 5782 5781 5779 5777 5775 5774 5772 5771 5769 5768 5766 5765 5764 5763
5786 5787 5787 5788 5789 5789 5790 5791 5791 5791 5791 5792 5792 5793 5793 5792 5792 5792 5791 5791 5790 5789 5788 5787 5786 5785 5784 5782 5780 5778 5777 5775 5773 5772 5770 5768 5767 5765 5764 5762 5761 5760 5758 5757
5779 5780 5780 5781 5782 5782 5786 5784 5784 5784 5785 5785 5785 5786 5786 5786 5786 5786 5785 5785 5784 5783 5782 5781 5780 5779 5778 5776 5774 5773 5771 5769 5768 5766 5764 5763 5761 5759 5758 5757 5755 5754 5752 5751
5772 5773 5773 5773 5774 5775 5777 5777 5777 5777 5778 5778 5778 5779 5779 5779 5779 5779 5778 5778 5777 5777 5776 5775 5774 5773 5771 5770 5768 5766 5765 5763 5761 5760 5758 5756 5755 5753 5752 5750 5749 5748 5747 5746
5765 5765 5766 5766 5766 5767 5771 5770 5770 5771 5770 5771 5771 5771 5772 5772 5772 5773 5772 5772 5771 5770 5768 5768 5767 5766 5765 5763 5761 5760 5758 5756 5755 5753 5752 5750 5749 5747 5746 5744 5743 5742 5741 5740
5757 5758 5758 5759 5758 5760 5762 5762 5762 5763 5764 5764 5764 5764 5764 5764 5765 5765 5764 5764 5763 5763 5762 5761 5760 5759 5758 5756 5755 5753 5751 5750 5748 5747 5745 5744 5742 5741 5739 5738 5737 5735 5734 5734
5749 5750 5751 5751 5751 5755 5754 5754 5754 5755 5755 5756 5756 5756 5756 5756 5756 5756 5756 5755 5755 5755 5754 5753 5752 5751 5750 5749 5747 5746 5744 5743 5742 5740 5739 5737 5736 5734 5732 5731 5730 5729 5728 5727
5742 5743 5743 5744 5746 5745 5745 5745 5745 5746 5747 5747 5747 5748 5748 5747 5748 5748 5748 5747 5747 5746 5746 5745 5744 5743 5742 5741 5740 5738 5737 5736 5735 5733 5732 5730 5729 5728 5726 5724 5723 5722 5721 5721
5735 5735 5735 5735 5737 5737 5737 5737 5737 5737 5738 5738 5738 5739 5739 5739 5739 5739 5739 5739 5738 5738 5737 5736 5736 5735 5734 5733 5732 5731 5730 5729 5727 5726 5725 5723 5722 5721 5719 5718 5716 5715 5715 5714
5727 5727 5727 5727 5728 5728 5729 5728 5729 5728 5729 5729 5730 5730 5730 5730 5730 5730 5730 5729 5729 5729 5728 5728 5727 5726 5726 5725 5724 5723 5722 5721 5720 5719 5717 5716 5715 5713 5712 5711 5710 5708 5708 5706
5719 5719 5719 5719 5720 5719 5720 5720 5719 5719 5719 5720 5720 5721 5721 5721 5721 5721 5721 5720 5720 5720 5719 5719 5718 5717 5717 5716 5716 5715 5714 5712 5711 5710 5709 5708 5707 5706 5704 5703 5702 5701 5700 5699